STARLINK-11663, 63668

Orbit data source: Space-Track

STARLINK-11663, 63668 is a payload satellite owned by SpaceX/Seattle (US) in LEO that was launched on Mon, 28 Apr 2025 UTC via an FALCON 9 launch vehicle from the Air Force Eastern Test Range (AFETR). Payload-class satellites include a variety of spacecraft equipped with specific instruments for various scientific and technological missions. These include communications satellites like Starlink; space stations such as the ISS; scientific satellites like the Hubble; Earth observation satellites from companies like Planet Labs, Umbra, and HawkEye 360; GPS; miniature CubeSats for education and research; and military/defense satellites.

Loading next visibility...
Identifier
63668, 2025-085E
Orbit
LEO
Country
Flag of USUS
Related business
Manufacturer
SpaceX/Seattle
Mission
Operational Commercial Communications
Bus & Motor
STARLINK V2MD, Unknown motor
Mass
960 kg wet, ~910 kg dry
Launch date (UTC)
2025-04-28 (1 year ago)
Launch vehicle
FALCON 9
Launch site
Air Force Eastern Test Range (AFETR)
Object type
Payload
Rocket body
Debris
Shape & HBR
Box + 2 Pan, 18.1 m
Radar Cross Section
36.964 m², Large (>1 m²)

Expand to show TLE details & history
Last TLE update: 14 hours ago

TLE from 14 hours ago
0 STARLINK-11663
1 63668U 25085E   26171.28345543  .00191922  00000-0  14597-2 0  9992
2 63668  43.0004  20.3329 0002392 277.8262  82.2334 15.70924389 66384
Epoch: 2026-06-20T06:48Z
TLE epoch observation values (Epoch: 2026-06-20T06:48:10.549Z)
Latitude
-0.00001°
Longitude
9.78864°
Altitude
355.808 km
Speed
7.698 km/s
True Right ascension
01h 21m 19s
True Declination
0° 00' 00"
Sunlit
Object was in daylight at epoch
Visualization orbit readout
Latitude
Unknown
Longitude
Unknown
Altitude
Unknown
Speed
Unknown
Apparent Right ascension
Unknown
Apparent Declination
Unknown
Sunlit
N/A
Visualization observer readout
Local Sidereal Time
07:24:34
Azimuth
Unknown
Elevation
Unknown
Doppler factor
Unknown
Orbital elements
Apogee altitude
359.847 km
Perigee altitude
356.624 km
Semi-major axis
6,736.372 km
Eccentricity
0.00024
Inclination
43.0004°
RAAN
20.3329°
Arg. of periapsis
277.8262°
True anomaly
82.26056°
Mean anomaly
82.2334°
Eccentric anomaly
82.24698°
Mean motion
3.92558 °/min
Orbital period
91.71 mins
BSTAR
0.0014597
Loading maneuver chart data...
Computing Atmospheric mass density...
Loading historical data...
Loading historical data...
Loading historical data...
Loading historical data...
Loading historical data...
Loading historical data...
Loading historical data...

Documentation

Showing up to 5 results
|